sat.trackr.live / text

‹ back to catalog

STARLINK-3953

NORAD 52559 · 2022-051AC

PAYLOAD ACTIVE UNKNOWN

§ Identity

Operator
Country
US
Launch date
2022-05-13
Launch site
AFWTR
Launch vehicle
Mass (kg)
RCS (m²)

Purposes: comms

External: N2YO · Heavens-Above · Gunter

§ Orbital elements

Epoch: 2026-05-24T23:19:19.195680Z

Period
95.44 min
Inclination
53.2134°
Eccentricity
0.0000920
Mean motion
15.08832401 rev/d
Perigee alt
539.1 km
Apogee alt
540.4 km
Semi-major
6,917.9 km
B*
1.0842e-4
RAAN
136.8600°
Arg perigee
98.9648°
Mean anomaly
261.1448°
Rev number
22,309

§ Raw data

STARLINK-39531 52559U 22051AC  26144.97174995  .00001438  00000+0  10842-3 0  99972 52559  53.2134 136.8600 0000920  98.9648 261.1448 15.08832401223099

JSON: /api/v1/satellites/52559 · /tle

For live sub-satellite position, see the globe view (requires WebGL).

§ Visibility from observer

Set your observer location to see the next 7 days of passes ≥ 10°. The values pass through the URL so the page stays shareable.

No JS? Fill the form by hand. The geolocation button needs JavaScript.